Time,TemperatureF,DewpointF,PressureIn,WindDirection,WindDirectionDegrees,WindSpeedMPH,WindSpeedGustMPH,Humidity,HourlyPrecipIn,Conditions,Clouds,dailyrainin,SoftwareType,DateUTC
2013-09-24 00:00:00,42.4,41.3,30.15,ENE,65,0.0,0.0,96,0.00,,---,0.00,VWS V14.01,2013-09-24 04:00:00,
2013-09-24 00:01:00,41.5,40.5,30.15,ENE,65,0.0,0.0,96,0.00,,---,0.00,VWS V14.01,2013-09-24 04:01:00,
2013-09-24 00:02:00,41.5,40.5,30.15,ENE,65,0.0,0.0,96,0.00,,---,0.00,VWS V14.01,2013-09-24 04:02:00,
2013-09-24 00:03:00,41.5,40.5,30.15,ENE,65,0.0,0.0,96,0.00,,---,0.00,VWS V14.01,2013-09-24 04:03:00,
2013-09-24 00:08:00,41.4,40.3,30.15,ENE,65,0.0,0.0,96,0.00,,---,0.00,VWS V14.01,2013-09-24 04:08:00,
2013-09-24 00:13:00,41.3,40.2,30.15,ENE,65,0.0,0.0,96,0.00,,---,0.00,VWS V14.01,2013-09-24 04:13:00,
2013-09-24 00:18:00,41.2,40.2,30.15,ENE,65,0.0,0.0,96,0.00,,---,0.00,VWS V14.01,2013-09-24 04:18:00,
2013-09-24 00:23:00,41.1,40.0,30.15,ENE,65,0.0,0.0,96,0.00,,---,0.00,VWS V14.01,2013-09-24 04:23:00,
2013-09-24 00:29:00,41.0,40.0,30.15,ENE,65,0.0,0.0,96,0.00,,---,0.00,VWS V14.01,2013-09-24 04:29:00,
2013-09-24 00:34:00,40.9,39.8,30.15,ENE,65,0.0,0.0,96,0.00,,---,0.00,VWS V14.01,2013-09-24 04:34:00,
2013-09-24 00:39:00,40.8,39.8,30.15,ENE,65,0.0,0.0,96,0.00,,---,0.00,VWS V14.01,2013-09-24 04:39:00,
2013-09-24 00:44:00,40.7,39.9,30.14,ENE,65,1.0,1.0,97,0.00,,---,0.00,VWS V14.01,2013-09-24 04:44:00,
2013-09-24 00:49:00,40.8,40.0,30.14,ENE,65,0.0,1.0,97,0.00,,---,0.00,VWS V14.01,2013-09-24 04:49:00,
2013-09-24 00:54:00,40.6,39.8,30.15,ENE,65,0.0,1.0,97,0.00,,---,0.00,VWS V14.01,2013-09-24 04:54:00,
2013-09-24 00:59:00,40.6,39.8,30.15,ENE,65,0.0,1.0,97,0.00,,---,0.00,VWS V14.01,2013-09-24 04:59:00,
2013-09-24 01:00:00,41.5,40.5,30.15,ENE,65,0.0,0.0,96,0.00,,---,0.00,VWS V14.01,2013-09-24 05:00:00,
2013-09-24 01:04:00,40.4,39.6,30.15,ENE,65,1.0,1.0,97,0.00,,---,0.00,VWS V14.01,2013-09-24 05:04:00,
2013-09-24 01:10:00,40.4,39.6,30.15,ENE,63,2.0,2.0,97,0.00,,---,0.00,VWS V14.01,2013-09-24 05:10:00,
2013-09-24 01:15:00,40.6,39.8,30.15,ENE,64,0.0,2.0,97,0.00,,---,0.00,VWS V14.01,2013-09-24 05:15:00,
2013-09-24 01:20:00,40.5,39.7,30.15,ENE,64,0.0,2.0,97,0.00,,---,0.00,VWS V14.01,2013-09-24 05:20:00,
2013-09-24 01:25:00,40.4,39.6,30.14,ENE,63,0.0,2.0,97,0.00,,---,0.00,VWS V14.01,2013-09-24 05:25:00,
2013-09-24 01:30:00,40.3,39.5,30.14,ENE,63,0.0,2.0,97,0.00,,---,0.00,VWS V14.01,2013-09-24 05:30:00,
2013-09-24 01:35:00,40.3,39.5,30.14,ENE,63,0.0,2.0,97,0.00,,---,0.00,VWS V14.01,2013-09-24 05:35:00,
2013-09-24 01:40:00,40.3,39.5,30.14,ENE,63,0.0,2.0,97,0.00,,---,0.00,VWS V14.01,2013-09-24 05:40:00,
2013-09-24 01:46:00,40.3,39.5,30.14,ENE,64,0.0,2.0,97,0.00,,---,0.00,VWS V14.01,2013-09-24 05:46:00,
2013-09-24 01:51:00,40.2,39.4,30.15,ENE,63,0.0,2.0,97,0.00,,---,0.00,VWS V14.01,2013-09-24 05:51:00,
2013-09-24 01:56:00,40.2,39.4,30.15,NE,46,1.0,2.0,97,0.00,,---,0.00,VWS V14.01,2013-09-24 05:56:00,
2013-09-24 02:00:00,40.5,39.5,30.15,ENE,65,0.0,1.0,96,0.00,,---,0.00,VWS V14.01,2013-09-24 06:00:00,
2013-09-24 02:01:00,40.4,39.6,30.15,NE,45,1.0,1.0,97,0.00,,---,0.00,VWS V14.01,2013-09-24 06:01:00,
2013-09-24 02:06:00,40.5,39.7,30.15,NE,46,1.0,2.0,97,0.00,,---,0.00,VWS V14.01,2013-09-24 06:06:00,
2013-09-24 02:11:00,40.4,39.6,30.15,NE,46,0.0,2.0,97,0.00,,---,0.00,VWS V14.01,2013-09-24 06:11:00,
2013-09-24 02:16:00,40.3,39.5,30.15,NE,45,0.0,2.0,97,0.00,,---,0.00,VWS V14.01,2013-09-24 06:16:00,
2013-09-24 02:21:00,40.1,39.3,30.15,NE,46,0.0,2.0,97,0.00,,---,0.00,VWS V14.01,2013-09-24 06:21:00,
2013-09-24 02:26:00,40.0,39.2,30.15,NE,46,0.0,2.0,97,0.00,,---,0.00,VWS V14.01,2013-09-24 06:26:00,
2013-09-24 02:31:00,39.8,39.0,30.15,NE,46,0.0,2.0,97,0.00,,---,0.00,VWS V14.01,2013-09-24 06:31:00,
2013-09-24 02:37:00,39.8,39.0,30.15,NE,46,0.0,2.0,97,0.00,,---,0.00,VWS V14.01,2013-09-24 06:37:00,
2013-09-24 02:42:00,39.8,39.0,30.15,NE,46,0.0,2.0,97,0.00,,---,0.00,VWS V14.01,2013-09-24 06:42:00,
2013-09-24 02:47:00,39.9,39.1,30.15,NE,46,0.0,2.0,97,0.00,,---,0.00,VWS V14.01,2013-09-24 06:47:00,
2013-09-24 02:52:00,39.9,39.1,30.15,NE,45,0.0,2.0,97,0.00,,---,0.00,VWS V14.01,2013-09-24 06:52:00,
2013-09-24 02:57:00,39.9,39.1,30.15,NE,46,0.0,2.0,97,0.00,,---,0.00,VWS V14.01,2013-09-24 06:57:00,
2013-09-24 03:00:00,40.4,39.6,30.15,NE,46,1.0,2.0,97,0.00,,---,0.00,VWS V14.01,2013-09-24 07:00:00,
2013-09-24 03:02:00,39.8,39.0,30.15,NE,46,0.0,0.0,97,0.00,,---,0.00,VWS V14.01,2013-09-24 07:02:00,
2013-09-24 03:07:00,39.7,38.9,30.15,NE,45,0.0,0.0,97,0.00,,---,0.00,VWS V14.01,2013-09-24 07:07:00,
2013-09-24 03:12:00,39.7,38.9,30.15,NE,46,0.0,0.0,97,0.00,,---,0.00,VWS V14.01,2013-09-24 07:12:00,
2013-09-24 03:17:00,39.7,38.9,30.15,NE,46,0.0,0.0,97,0.00,,---,0.00,VWS V14.01,2013-09-24 07:17:00,
2013-09-24 03:22:00,39.6,38.8,30.14,NE,46,0.0,0.0,97,0.00,,---,0.00,VWS V14.01,2013-09-24 07:22:00,
2013-09-24 03:27:00,39.6,38.8,30.14,NE,46,0.0,0.0,97,0.00,,---,0.00,VWS V14.01,2013-09-24 07:27:00,
2013-09-24 03:32:00,39.5,38.7,30.14,NE,46,0.0,0.0,97,0.00,,---,0.00,VWS V14.01,2013-09-24 07:32:00,
2013-09-24 03:38:00,39.5,38.7,30.14,NE,45,1.0,1.0,97,0.00,,---,0.00,VWS V14.01,2013-09-24 07:38:00,
2013-09-24 03:43:00,39.6,38.8,30.14,NE,46,1.0,1.0,97,0.00,,---,0.00,VWS V14.01,2013-09-24 07:43:00,
2013-09-24 03:48:00,39.7,38.9,30.14,NE,45,1.0,1.0,97,0.00,,---,0.00,VWS V14.01,2013-09-24 07:48:00,
2013-09-24 03:53:00,39.9,39.1,30.14,NE,46,2.0,2.0,97,0.00,,---,0.00,VWS V14.01,2013-09-24 07:53:00,
2013-09-24 03:58:00,40.1,39.6,30.14,NE,46,0.0,2.0,98,0.00,,---,0.00,VWS V14.01,2013-09-24 07:58:00,
2013-09-24 04:00:00,39.8,39.0,30.15,NE,45,0.0,2.0,97,0.00,,---,0.00,VWS V14.01,2013-09-24 08:00:00,
2013-09-24 04:03:00,39.8,39.0,30.14,NE,46,0.0,0.0,97,0.00,,---,0.00,VWS V14.01,2013-09-24 08:03:00,
2013-09-24 04:08:00,39.6,38.8,30.14,NE,46,0.0,1.0,97,0.00,,---,0.00,VWS V14.01,2013-09-24 08:08:00,
2013-09-24 04:13:00,39.5,38.7,30.14,NE,46,0.0,1.0,97,0.00,,---,0.00,VWS V14.01,2013-09-24 08:13:00,
2013-09-24 04:18:00,39.5,38.7,30.14,NE,46,0.0,1.0,97,0.00,,---,0.00,VWS V14.01,2013-09-24 08:18:00,
2013-09-24 04:23:00,39.4,38.6,30.14,NE,46,0.0,1.0,97,0.00,,---,0.00,VWS V14.01,2013-09-24 08:23:00,
2013-09-24 04:28:00,39.4,38.6,30.14,NE,45,0.0,1.0,97,0.00,,---,0.00,VWS V14.01,2013-09-24 08:28:00,
2013-09-24 04:33:00,39.4,38.6,30.14,NE,46,0.0,1.0,97,0.00,,---,0.00,VWS V14.01,2013-09-24 08:33:00,
2013-09-24 04:39:00,39.4,38.6,30.14,NE,46,0.0,1.0,97,0.00,,---,0.00,VWS V14.01,2013-09-24 08:39:00,
2013-09-24 04:44:00,39.4,38.6,30.14,NE,45,0.0,1.0,97,0.00,,---,0.00,VWS V14.01,2013-09-24 08:44:00,
2013-09-24 04:49:00,39.3,38.5,30.14,NE,45,0.0,1.0,97,0.00,,---,0.00,VWS V14.01,2013-09-24 08:49:00,
2013-09-24 04:54:00,39.4,38.9,30.14,NE,45,0.0,1.0,98,0.00,,---,0.00,VWS V14.01,2013-09-24 08:54:00,
2013-09-24 04:59:00,39.3,38.8,30.14,NE,46,0.0,1.0,98,0.00,,---,0.00,VWS V14.01,2013-09-24 08:59:00,
2013-09-24 05:00:00,39.9,39.1,30.14,NE,46,0.0,2.0,97,0.00,,---,0.00,VWS V14.01,2013-09-24 09:00:00,
2013-09-24 05:04:00,39.4,38.9,30.14,NE,46,0.0,0.0,98,0.00,,---,0.00,VWS V14.01,2013-09-24 09:04:00,
2013-09-24 05:09:00,39.4,38.9,30.14,NE,45,0.0,0.0,98,0.00,,---,0.00,VWS V14.01,2013-09-24 09:09:00,
2013-09-24 05:14:00,39.4,38.9,30.14,NE,46,0.0,0.0,98,0.00,,---,0.00,VWS V14.01,2013-09-24 09:14:00,
2013-09-24 05:19:00,39.4,38.9,30.14,NE,46,0.0,0.0,98,0.00,,---,0.00,VWS V14.01,2013-09-24 09:19:00,
2013-09-24 05:24:00,39.4,38.9,30.14,NE,46,0.0,0.0,98,0.00,,---,0.00,VWS V14.01,2013-09-24 09:24:00,
2013-09-24 05:29:00,39.5,39.0,30.14,NE,46,1.0,1.0,98,0.00,,---,0.00,VWS V14.01,2013-09-24 09:29:00,
2013-09-24 05:34:00,39.4,38.9,30.14,NE,46,1.0,2.0,98,0.00,,---,0.00,VWS V14.01,2013-09-24 09:34:00,
2013-09-24 05:40:00,39.4,38.9,30.14,NE,46,1.0,2.0,98,0.00,,---,0.00,VWS V14.01,2013-09-24 09:40:00,
2013-09-24 05:45:00,39.4,38.9,30.14,ENE,57,1.0,2.0,98,0.00,,---,0.00,VWS V14.01,2013-09-24 09:45:00,
2013-09-24 05:50:00,39.7,39.2,30.14,NE,47,1.0,2.0,98,0.00,,---,0.00,VWS V14.01,2013-09-24 09:50:00,
2013-09-24 05:55:00,40.1,39.6,30.14,NE,34,1.0,2.0,98,0.00,,---,0.00,VWS V14.01,2013-09-24 09:55:00,
2013-09-24 06:00:00,40.4,39.9,30.14,NE,34,0.0,2.0,98,0.00,,---,0.00,VWS V14.01,2013-09-24 10:00:00,
2013-09-24 06:05:00,39.9,39.4,30.14,NE,34,0.0,0.0,98,0.00,,---,0.00,VWS V14.01,2013-09-24 10:05:00,
2013-09-24 06:10:00,39.5,38.7,30.14,NE,34,0.0,0.0,97,0.00,,---,0.00,VWS V14.01,2013-09-24 10:10:00,
2013-09-24 06:15:00,39.4,38.6,30.14,NE,34,0.0,0.0,97,0.00,,---,0.00,VWS V14.01,2013-09-24 10:15:00,
2013-09-24 06:20:00,39.3,38.8,30.14,NE,34,0.0,0.0,98,0.00,,---,0.00,VWS V14.01,2013-09-24 10:20:00,
2013-09-24 06:25:00,39.4,38.9,30.15,NE,34,0.0,1.0,98,0.00,,---,0.00,VWS V14.01,2013-09-24 10:25:00,
2013-09-24 06:30:00,39.7,39.2,30.15,NE,34,1.0,1.0,98,0.00,,---,0.00,VWS V14.01,2013-09-24 10:30:00,
2013-09-24 06:36:00,40.0,39.5,30.15,NE,34,0.0,1.0,98,0.00,,---,0.00,VWS V14.01,2013-09-24 10:36:00,
2013-09-24 06:41:00,39.8,39.3,30.15,NE,34,0.0,1.0,98,0.00,,---,0.00,VWS V14.01,2013-09-24 10:41:00,
2013-09-24 06:46:00,39.7,39.2,30.15,NE,34,0.0,1.0,98,0.00,,---,0.00,VWS V14.01,2013-09-24 10:46:00,
2013-09-24 06:51:00,39.5,39.0,30.15,NE,34,0.0,1.0,98,0.00,,---,0.00,VWS V14.01,2013-09-24 10:51:00,
2013-09-24 06:56:00,39.5,39.0,30.15,NE,34,0.0,1.0,98,0.00,,---,0.00,VWS V14.01,2013-09-24 10:56:00,
2013-09-24 07:00:00,40.3,39.8,30.14,NE,34,0.0,2.0,98,0.00,,---,0.00,VWS V14.01,2013-09-24 11:00:00,
2013-09-24 07:01:00,39.4,38.9,30.15,NE,34,0.0,0.0,98,0.00,,---,0.00,VWS V14.01,2013-09-24 11:01:00,
2013-09-24 07:06:00,39.4,38.9,30.15,NE,34,0.0,0.0,98,0.01,,---,0.01,VWS V14.01,2013-09-24 11:06:00,
2013-09-24 07:11:00,39.5,39.0,30.15,NE,34,0.0,0.0,98,0.01,,---,0.01,VWS V14.01,2013-09-24 11:11:00,
2013-09-24 07:16:00,39.4,38.9,30.16,NE,34,0.0,0.0,98,0.01,,---,0.01,VWS V14.01,2013-09-24 11:16:00,
2013-09-24 07:21:00,39.3,38.8,30.16,NE,34,0.0,0.0,98,0.01,,---,0.01,VWS V14.01,2013-09-24 11:21:00,
2013-09-24 07:26:00,39.2,38.7,30.16,NE,34,0.0,0.0,98,0.01,,---,0.01,VWS V14.01,2013-09-24 11:26:00,
2013-09-24 07:31:00,39.2,38.7,30.15,NE,34,0.0,1.0,98,0.01,,---,0.01,VWS V14.01,2013-09-24 11:31:00,
2013-09-24 07:36:00,39.2,38.7,30.16,NE,34,0.0,1.0,98,0.01,,---,0.01,VWS V14.01,2013-09-24 11:36:00,
2013-09-24 07:42:00,39.2,38.7,30.16,NE,34,0.0,1.0,98,0.01,,---,0.01,VWS V14.01,2013-09-24 11:42:00,
2013-09-24 07:47:00,39.3,38.8,30.16,NE,34,1.0,1.0,98,0.01,,---,0.01,VWS V14.01,2013-09-24 11:47:00,
2013-09-24 07:52:00,39.5,39.0,30.15,NE,34,1.0,2.0,98,0.01,,---,0.01,VWS V14.01,2013-09-24 11:52:00,
2013-09-24 07:57:00,39.7,39.2,30.16,NNE,33,0.0,2.0,98,0.01,,---,0.01,VWS V14.01,2013-09-24 11:57:00,
2013-09-24 08:00:00,39.4,38.9,30.15,NE,34,0.0,1.0,98,0.00,,---,0.00,VWS V14.01,2013-09-24 12:00:00,
2013-09-24 08:03:00,40.1,39.6,30.15,NNE,31,1.0,1.0,98,0.01,,---,0.01,VWS V14.01,2013-09-24 12:03:00,
2013-09-24 08:08:00,40.7,40.2,30.15,NNE,32,1.0,1.0,98,0.01,,---,0.01,VWS V14.01,2013-09-24 12:08:00,
2013-09-24 08:13:00,41.2,40.7,30.15,NNE,32,0.0,1.0,98,0.01,,---,0.01,VWS V14.01,2013-09-24 12:13:00,
2013-09-24 08:18:00,42.0,41.5,30.15,NNE,32,1.0,1.0,98,0.01,,---,0.01,VWS V14.01,2013-09-24 12:18:00,
2013-09-24 08:23:00,42.7,42.2,30.15,NE,44,1.0,2.0,98,0.01,,---,0.01,VWS V14.01,2013-09-24 12:23:00,
2013-09-24 08:28:00,43.6,43.3,30.15,NNE,29,2.0,2.0,99,0.01,,---,0.01,VWS V14.01,2013-09-24 12:28:00,
2013-09-24 08:34:00,44.5,44.2,30.15,NNE,29,2.0,3.0,99,0.01,,---,0.01,VWS V14.01,2013-09-24 12:34:00,
2013-09-24 08:39:00,45.4,45.1,30.15,NNE,29,2.0,3.0,99,0.01,,---,0.01,VWS V14.01,2013-09-24 12:39:00,
2013-09-24 08:44:00,46.0,45.7,30.15,NNE,19,2.0,3.0,99,0.01,,---,0.01,VWS V14.01,2013-09-24 12:44:00,
2013-09-24 08:49:00,46.7,46.4,30.15,NE,40,2.0,4.0,99,0.01,,---,0.01,VWS V14.01,2013-09-24 12:49:00,
2013-09-24 08:54:00,47.3,47.0,30.15,NE,39,2.0,4.0,99,0.01,,---,0.01,VWS V14.01,2013-09-24 12:54:00,
2013-09-24 08:59:00,48.0,47.7,30.15,NE,39,2.0,4.0,99,0.01,,---,0.01,VWS V14.01,2013-09-24 12:59:00,
2013-09-24 09:00:00,39.9,39.4,30.15,NNE,33,0.0,2.0,98,0.01,,---,0.01,VWS V14.01,2013-09-24 13:00:00,
2013-09-24 09:04:00,48.7,48.4,30.15,NE,37,2.0,4.0,99,0.00,,---,0.01,VWS V14.01,2013-09-24 13:04:00,
2013-09-24 09:09:00,49.3,49.0,30.15,NNE,33,3.0,4.0,99,0.00,,---,0.01,VWS V14.01,2013-09-24 13:09:00,
2013-09-24 09:14:00,49.9,49.4,30.15,NE,34,3.0,5.0,98,0.00,,---,0.01,VWS V14.01,2013-09-24 13:14:00,
2013-09-24 09:19:00,50.6,49.8,30.15,NNE,33,3.0,5.0,97,0.00,,---,0.01,VWS V14.01,2013-09-24 13:19:00,
2013-09-24 09:24:00,51.3,50.2,30.15,NE,46,4.0,5.0,96,0.00,,---,0.01,VWS V14.01,2013-09-24 13:24:00,
2013-09-24 09:29:00,51.8,50.1,30.15,ENE,61,2.0,5.0,94,0.00,,---,0.01,VWS V14.01,2013-09-24 13:29:00,
2013-09-24 09:34:00,52.4,50.2,30.15,NNE,32,4.0,5.0,92,0.00,,---,0.01,VWS V14.01,2013-09-24 13:34:00,
2013-09-24 09:40:00,53.0,50.5,30.15,ESE,106,2.0,6.0,91,0.00,,---,0.01,VWS V14.01,2013-09-24 13:40:00,
2013-09-24 09:45:00,53.9,51.3,30.15,ENE,75,6.0,6.0,91,0.00,,---,0.01,VWS V14.01,2013-09-24 13:45:00,
2013-09-24 09:50:00,54.5,51.3,30.15,NE,49,3.0,6.0,89,0.00,,---,0.01,VWS V14.01,2013-09-24 13:50:00,
2013-09-24 09:55:00,54.7,50.6,30.15,ENE,67,2.0,7.0,86,0.00,,---,0.01,VWS V14.01,2013-09-24 13:55:00,
2013-09-24 10:00:00,55.0,50.6,30.14,East,89,5.0,7.0,85,0.00,,---,0.01,VWS V14.01,2013-09-24 14:00:00,
2013-09-24 10:05:00,55.2,50.5,30.15,East,94,4.0,7.0,84,0.00,,---,0.01,VWS V14.01,2013-09-24 14:05:00,
2013-09-24 10:10:00,55.7,51.0,30.15,NNE,33,4.0,7.0,84,0.00,,---,0.01,VWS V14.01,2013-09-24 14:10:00,
2013-09-24 10:15:00,56.2,50.8,30.15,East,84,4.0,7.0,82,0.00,,---,0.01,VWS V14.01,2013-09-24 14:15:00,
2013-09-24 10:20:00,56.5,50.4,30.15,ESE,115,4.0,7.0,80,0.00,,---,0.01,VWS V14.01,2013-09-24 14:20:00,
2013-09-24 10:25:00,56.7,50.3,30.15,East,86,3.0,7.0,79,0.00,,---,0.01,VWS V14.01,2013-09-24 14:25:00,
2013-09-24 10:30:00,57.1,49.6,30.15,NE,53,2.0,7.0,76,0.00,,---,0.01,VWS V14.01,2013-09-24 14:30:00,
2013-09-24 10:35:00,57.2,50.1,30.15,NNE,32,5.0,7.0,77,0.00,,---,0.01,VWS V14.01,2013-09-24 14:35:00,
2013-09-24 10:40:00,57.4,50.3,30.14,East,79,0.0,7.0,77,0.00,,---,0.01,VWS V14.01,2013-09-24 14:40:00,
2013-09-24 10:46:00,57.9,50.4,30.14,East,86,2.0,7.0,76,0.00,,---,0.01,VWS V14.01,2013-09-24 14:46:00,
2013-09-24 10:51:00,57.9,49.7,30.14,ENE,57,4.0,7.0,74,0.00,,---,0.01,VWS V14.01,2013-09-24 14:51:00,
2013-09-24 10:56:00,58.1,49.1,30.14,SE,133,4.0,8.0,72,0.00,,---,0.01,VWS V14.01,2013-09-24 14:56:00,
2013-09-24 11:00:00,55.0,50.6,30.14,East,82,3.0,7.0,85,0.00,,---,0.01,VWS V14.01,2013-09-24 15:00:00,
2013-09-24 11:01:00,58.0,49.0,30.14,SE,132,4.0,4.0,72,0.00,,---,0.01,VWS V14.01,2013-09-24 15:01:00,
2013-09-24 11:06:00,58.0,49.8,30.13,SE,146,0.0,5.0,74,0.00,,---,0.01,VWS V14.01,2013-09-24 15:06:00,
2013-09-24 11:11:00,59.0,50.0,30.13,ESE,115,1.0,5.0,72,0.00,,---,0.01,VWS V14.01,2013-09-24 15:11:00,
2013-09-24 11:16:00,59.1,49.7,30.13,ENE,61,0.0,5.0,71,0.00,,---,0.01,VWS V14.01,2013-09-24 15:16:00,
2013-09-24 11:21:00,59.4,49.6,30.13,East,98,3.0,7.0,70,0.00,,---,0.01,VWS V14.01,2013-09-24 15:21:00,
2013-09-24 11:26:00,59.4,49.2,30.13,ENE,75,8.0,8.0,69,0.00,,---,0.01,VWS V14.01,2013-09-24 15:26:00,
2013-09-24 11:31:00,59.3,50.3,30.13,NE,53,5.0,8.0,72,0.00,,---,0.01,VWS V14.01,2013-09-24 15:31:00,
2013-09-24 11:36:00,59.0,49.2,30.13,NE,56,4.0,8.0,70,0.00,,---,0.01,VWS V14.01,2013-09-24 15:36:00,
2013-09-24 11:41:00,58.6,49.6,30.13,ENE,57,2.0,8.0,72,0.00,,---,0.01,VWS V14.01,2013-09-24 15:41:00,
2013-09-24 11:46:00,58.9,49.5,30.13,East,94,2.0,8.0,71,0.00,,---,0.01,VWS V14.01,2013-09-24 15:46:00,
2013-09-24 11:51:00,59.0,48.5,30.13,ENE,61,4.0,8.0,68,0.00,,---,0.01,VWS V14.01,2013-09-24 15:51:00,
2013-09-24 11:57:00,58.8,49.0,30.12,ESE,115,0.0,8.0,70,0.00,,---,0.01,VWS V14.01,2013-09-24 15:57:00,
2013-09-24 12:00:00,58.0,49.0,30.14,SE,138,3.0,8.0,72,0.00,,---,0.01,VWS V14.01,2013-09-24 16:00:00,
2013-09-24 12:02:00,59.3,49.9,30.12,NNE,33,0.0,3.0,71,0.00,,---,0.01,VWS V14.01,2013-09-24 16:02:00,
2013-09-24 12:07:00,60.1,49.9,30.12,NW,323,3.0,6.0,69,0.00,,---,0.01,VWS V14.01,2013-09-24 16:07:00,
2013-09-24 12:12:00,60.4,49.8,30.12,ENE,57,3.0,8.0,68,0.00,,---,0.01,VWS V14.01,2013-09-24 16:12:00,
2013-09-24 12:17:00,60.9,51.5,30.12,SE,131,5.0,8.0,71,0.00,,---,0.01,VWS V14.01,2013-09-24 16:17:00,
2013-09-24 12:22:00,61.1,49.7,30.12,ESE,116,5.0,8.0,66,0.00,,---,0.01,VWS V14.01,2013-09-24 16:22:00,
2013-09-24 12:27:00,61.2,49.3,30.11,SE,138,2.0,8.0,65,0.00,,---,0.01,VWS V14.01,2013-09-24 16:27:00,
2013-09-24 12:32:00,62.1,50.6,30.11,SW,236,2.0,8.0,66,0.00,,---,0.01,VWS V14.01,2013-09-24 16:32:00,
2013-09-24 12:37:00,63.0,50.2,30.11,ENE,70,6.0,8.0,63,0.00,,---,0.01,VWS V14.01,2013-09-24 16:37:00,
2013-09-24 12:42:00,61.6,48.9,30.11,East,89,1.0,8.0,63,0.00,,---,0.01,VWS V14.01,2013-09-24 16:42:00,
2013-09-24 12:47:00,61.6,50.1,30.10,SE,143,5.0,8.0,66,0.00,,---,0.01,VWS V14.01,2013-09-24 16:47:00,
2013-09-24 12:53:00,62.2,49.9,30.10,SE,124,4.0,8.0,64,0.00,,---,0.01,VWS V14.01,2013-09-24 16:53:00,
2013-09-24 12:58:00,62.2,50.7,30.10,ESE,109,5.0,8.0,66,0.00,,---,0.01,VWS V14.01,2013-09-24 16:58:00,
2013-09-24 13:00:00,59.1,50.1,30.12,NE,41,1.0,8.0,72,0.00,,---,0.01,VWS V14.01,2013-09-24 17:00:00,
2013-09-24 13:03:00,62.1,49.4,30.09,SSE,153,2.0,3.0,63,0.00,,---,0.01,VWS V14.01,2013-09-24 17:03:00,
2013-09-24 13:08:00,62.4,49.7,30.09,SSW,195,2.0,4.0,63,0.00,,---,0.01,VWS V14.01,2013-09-24 17:08:00,
2013-09-24 13:13:00,62.8,50.0,30.09,ENE,72,3.0,7.0,63,0.00,,---,0.01,VWS V14.01,2013-09-24 17:13:00,
2013-09-24 13:18:00,62.2,50.3,30.09,ESE,102,7.0,8.0,65,0.00,,---,0.01,VWS V14.01,2013-09-24 17:18:00,
2013-09-24 13:23:00,62.0,49.7,30.09,ESE,112,4.0,11.0,64,0.00,,---,0.01,VWS V14.01,2013-09-24 17:23:00,
2013-09-24 13:28:00,62.2,51.1,30.08,ENE,68,4.0,11.0,67,0.00,,---,0.01,VWS V14.01,2013-09-24 17:28:00,
2013-09-24 13:33:00,62.5,50.6,30.08,North,6,5.0,11.0,65,0.00,,---,0.01,VWS V14.01,2013-09-24 17:33:00,
2013-09-24 13:38:00,62.8,50.0,30.08,NE,41,5.0,11.0,63,0.00,,---,0.01,VWS V14.01,2013-09-24 17:38:00,
2013-09-24 13:43:00,62.9,49.7,30.08,ESE,108,3.0,11.0,62,0.00,,---,0.01,VWS V14.01,2013-09-24 17:43:00,
2013-09-24 13:48:00,63.1,49.5,30.08,East,82,6.0,11.0,61,0.00,,---,0.01,VWS V14.01,2013-09-24 17:48:00,
2013-09-24 13:53:00,63.2,50.0,30.08,NE,53,4.0,11.0,62,0.00,,---,0.01,VWS V14.01,2013-09-24 17:53:00,
2013-09-24 13:58:00,63.5,49.8,30.07,NE,37,1.0,11.0,61,0.00,,---,0.01,VWS V14.01,2013-09-24 17:58:00,
2013-09-24 14:00:00,62.0,49.3,30.09,ENE,62,0.0,8.0,63,0.00,,---,0.01,VWS V14.01,2013-09-24 18:00:00,
2013-09-24 14:04:00,63.9,50.2,30.07,SSE,159,5.0,7.0,61,0.00,,---,0.01,VWS V14.01,2013-09-24 18:04:00,
2013-09-24 14:09:00,63.9,49.3,30.07,East,96,3.0,12.0,59,0.00,,---,0.01,VWS V14.01,2013-09-24 18:09:00,
2013-09-24 14:14:00,63.7,49.1,30.06,ESE,115,4.0,12.0,59,0.00,,---,0.01,VWS V14.01,2013-09-24 18:14:00,
2013-09-24 14:19:00,63.5,48.9,30.06,SSE,153,4.0,12.0,59,0.00,,---,0.01,VWS V14.01,2013-09-24 18:19:00,
2013-09-24 14:24:00,63.7,49.1,30.06,East,91,5.0,12.0,59,0.00,,---,0.01,VWS V14.01,2013-09-24 18:24:00,
2013-09-24 14:29:00,63.7,50.0,30.06,SE,136,4.0,12.0,61,0.00,,---,0.01,VWS V14.01,2013-09-24 18:29:00,
2013-09-24 14:34:00,63.9,48.4,30.06,SE,126,5.0,12.0,57,0.00,,---,0.01,VWS V14.01,2013-09-24 18:34:00,
2013-09-24 14:39:00,64.0,49.4,30.06,ENE,57,6.0,12.0,59,0.00,,---,0.01,VWS V14.01,2013-09-24 18:39:00,
2013-09-24 14:44:00,64.1,49.5,30.06,SSE,163,2.0,12.0,59,0.00,,---,0.01,VWS V14.01,2013-09-24 18:44:00,
2013-09-24 14:49:00,64.6,49.5,30.05,ESE,109,7.0,12.0,58,0.00,,---,0.01,VWS V14.01,2013-09-24 18:49:00,
2013-09-24 14:54:00,64.6,50.4,30.05,SE,134,2.0,12.0,60,0.00,,---,0.01,VWS V14.01,2013-09-24 18:54:00,
2013-09-24 14:59:00,64.8,49.2,30.05,South,186,5.0,12.0,57,0.00,,---,0.01,VWS V14.01,2013-09-24 18:59:00,
2013-09-24 15:00:00,63.7,50.0,30.07,East,89,5.0,11.0,61,0.00,,---,0.01,VWS V14.01,2013-09-24 19:00:00,
2013-09-24 15:04:00,64.7,49.1,30.05,ESE,105,7.0,11.0,57,0.00,,---,0.01,VWS V14.01,2013-09-24 19:04:00,
2013-09-24 15:10:00,64.5,49.4,30.05,ESE,122,5.0,11.0,58,0.00,,---,0.01,VWS V14.01,2013-09-24 19:10:00,
2013-09-24 15:15:00,64.6,49.0,30.04,ENE,66,2.0,11.0,57,0.00,,---,0.01,VWS V14.01,2013-09-24 19:15:00,
2013-09-24 15:20:00,64.8,49.7,30.04,ESE,120,2.0,11.0,58,0.00,,---,0.01,VWS V14.01,2013-09-24 19:20:00,
2013-09-24 15:25:00,65.3,49.7,30.04,SE,135,4.0,11.0,57,0.00,,---,0.01,VWS V14.01,2013-09-24 19:25:00,
2013-09-24 15:30:00,65.5,50.3,30.04,ENE,63,6.0,11.0,58,0.00,,---,0.01,VWS V14.01,2013-09-24 19:30:00,
2013-09-24 15:35:00,65.6,51.4,30.03,ESE,108,8.0,11.0,60,0.00,,---,0.01,VWS V14.01,2013-09-24 19:35:00,
2013-09-24 15:40:00,65.5,50.3,30.03,SE,129,0.0,11.0,58,0.00,,---,0.01,VWS V14.01,2013-09-24 19:40:00,
2013-09-24 15:45:00,65.9,50.7,30.03,ENE,57,3.0,11.0,58,0.00,,---,0.01,VWS V14.01,2013-09-24 19:45:00,
2013-09-24 15:50:00,65.9,49.8,30.03,East,89,4.0,11.0,56,0.00,,---,0.01,VWS V14.01,2013-09-24 19:50:00,
2013-09-24 15:55:00,65.5,48.9,30.03,SE,141,5.0,11.0,55,0.00,,---,0.01,VWS V14.01,2013-09-24 19:55:00,
2013-09-24 16:00:00,65.7,49.6,30.03,SE,136,2.0,11.0,56,0.00,,---,0.01,VWS V14.01,2013-09-24 20:00:00,
2013-09-24 16:05:00,65.9,50.2,30.03,NE,36,5.0,8.0,57,0.00,,---,0.01,VWS V14.01,2013-09-24 20:05:00,
2013-09-24 16:10:00,66.3,50.6,30.03,ESE,121,3.0,8.0,57,0.00,,---,0.01,VWS V14.01,2013-09-24 20:10:00,
2013-09-24 16:16:00,66.3,49.7,30.03,SW,217,2.0,10.0,55,0.00,,---,0.01,VWS V14.01,2013-09-24 20:16:00,
2013-09-24 16:21:00,66.5,49.4,30.02,East,85,4.0,10.0,54,0.00,,---,0.01,VWS V14.01,2013-09-24 20:21:00,
2013-09-24 16:26:00,66.6,50.0,30.02,East,98,3.0,10.0,55,0.00,,---,0.01,VWS V14.01,2013-09-24 20:26:00,
2013-09-24 16:31:00,66.3,49.2,30.02,ESE,117,2.0,10.0,54,0.00,,---,0.01,VWS V14.01,2013-09-24 20:31:00,
2013-09-24 16:36:00,66.4,49.8,30.02,ESE,107,5.0,10.0,55,0.00,,---,0.01,VWS V14.01,2013-09-24 20:36:00,
2013-09-24 16:41:00,66.3,49.7,30.02,ESE,122,6.0,10.0,55,0.00,,---,0.01,VWS V14.01,2013-09-24 20:41:00,
2013-09-24 16:46:00,66.2,50.1,30.02,ESE,106,2.0,10.0,56,0.00,,---,0.01,VWS V14.01,2013-09-24 20:46:00,
2013-09-24 16:51:00,66.4,50.7,30.02,East,94,2.0,10.0,57,0.00,,---,0.01,VWS V14.01,2013-09-24 20:51:00,
2013-09-24 16:56:00,66.6,51.8,30.02,ESE,113,1.0,10.0,59,0.00,,---,0.01,VWS V14.01,2013-09-24 20:56:00,
2013-09-24 17:00:00,65.7,49.6,30.03,ESE,116,2.0,11.0,56,0.00,,---,0.01,VWS V14.01,2013-09-24 21:00:00,
2013-09-24 17:01:00,66.8,50.6,30.02,ENE,60,1.0,3.0,56,0.00,,---,0.01,VWS V14.01,2013-09-24 21:01:00,
2013-09-24 17:06:00,66.8,50.6,30.02,ENE,72,7.0,7.0,56,0.00,,---,0.01,VWS V14.01,2013-09-24 21:06:00,
2013-09-24 17:11:00,66.3,50.2,30.02,East,88,4.0,7.0,56,0.00,,---,0.01,VWS V14.01,2013-09-24 21:11:00,
2013-09-24 17:17:00,66.1,50.4,30.02,ESE,110,2.0,7.0,57,0.00,,---,0.01,VWS V14.01,2013-09-24 21:17:00,
2013-09-24 17:22:00,66.1,50.9,30.02,East,87,1.0,7.0,58,0.00,,---,0.01,VWS V14.01,2013-09-24 21:22:00,
2013-09-24 17:27:00,66.5,52.2,30.01,NNW,345,1.0,7.0,60,0.00,,---,0.01,VWS V14.01,2013-09-24 21:27:00,
2013-09-24 17:32:00,66.7,51.0,30.02,SSE,149,4.0,7.0,57,0.00,,---,0.01,VWS V14.01,2013-09-24 21:32:00,
2013-09-24 17:37:00,66.5,50.8,30.01,NE,53,2.0,7.0,57,0.00,,---,0.01,VWS V14.01,2013-09-24 21:37:00,
2013-09-24 17:42:00,66.2,50.1,30.02,ENE,68,6.0,7.0,56,0.00,,---,0.01,VWS V14.01,2013-09-24 21:42:00,
2013-09-24 17:47:00,65.9,49.8,30.02,ENE,65,5.0,7.0,56,0.00,,---,0.01,VWS V14.01,2013-09-24 21:47:00,
2013-09-24 17:52:00,65.8,50.6,30.01,ESE,105,3.0,7.0,58,0.00,,---,0.01,VWS V14.01,2013-09-24 21:52:00,
2013-09-24 17:57:00,65.9,51.2,30.02,ENE,70,2.0,7.0,59,0.00,,---,0.01,VWS V14.01,2013-09-24 21:57:00,
2013-09-24 18:00:00,66.8,51.1,30.02,East,82,1.0,10.0,57,0.00,,---,0.01,VWS V14.01,2013-09-24 22:00:00,
2013-09-24 18:02:00,65.8,51.1,30.01,East,89,5.0,6.0,59,0.00,,---,0.01,VWS V14.01,2013-09-24 22:02:00,
2013-09-24 18:07:00,65.6,50.4,30.02,ENE,66,4.0,6.0,58,0.00,,---,0.01,VWS V14.01,2013-09-24 22:07:00,
2013-09-24 18:13:00,65.5,49.9,30.01,NE,47,5.0,8.0,57,0.00,,---,0.01,VWS V14.01,2013-09-24 22:13:00,
2013-09-24 18:18:00,65.2,50.5,30.01,NE,49,4.0,9.0,59,0.00,,---,0.01,VWS V14.01,2013-09-24 22:18:00,
2013-09-24 18:23:00,65.1,50.4,30.01,ENE,58,2.0,9.0,59,0.00,,---,0.01,VWS V14.01,2013-09-24 22:23:00,
2013-09-24 18:28:00,64.9,50.7,30.01,NE,51,3.0,9.0,60,0.00,,---,0.01,VWS V14.01,2013-09-24 22:28:00,
2013-09-24 18:33:00,64.7,50.5,30.01,NE,51,3.0,9.0,60,0.00,,---,0.01,VWS V14.01,2013-09-24 22:33:00,
2013-09-24 18:38:00,64.5,50.3,30.01,NE,51,3.0,9.0,60,0.00,,---,0.01,VWS V14.01,2013-09-24 22:38:00,
2013-09-24 18:43:00,64.4,50.7,30.01,NE,54,4.0,9.0,61,0.00,,---,0.01,VWS V14.01,2013-09-24 22:43:00,
2013-09-24 18:48:00,64.3,51.0,30.01,ENE,63,2.0,9.0,62,0.00,,---,0.01,VWS V14.01,2013-09-24 22:48:00,
2013-09-24 18:53:00,64.1,51.3,30.01,ENE,72,0.0,9.0,63,0.00,,---,0.01,VWS V14.01,2013-09-24 22:53:00,
2013-09-24 18:58:00,64.0,51.6,30.00,ENE,61,3.0,9.0,64,0.00,,---,0.01,VWS V14.01,2013-09-24 22:58:00,
2013-09-24 19:00:00,65.9,50.7,30.02,ENE,74,2.0,7.0,58,0.00,,---,0.01,VWS V14.01,2013-09-24 23:00:00,
2013-09-24 19:03:00,63.5,51.1,30.00,ENE,64,3.0,3.0,64,0.00,,---,0.01,VWS V14.01,2013-09-24 23:03:00,
2013-09-24 19:09:00,63.0,51.1,30.00,East,82,1.0,4.0,65,0.00,,---,0.01,VWS V14.01,2013-09-24 23:09:00,
2013-09-24 19:14:00,62.3,51.2,30.00,East,80,1.0,4.0,67,0.00,,---,0.01,VWS V14.01,2013-09-24 23:14:00,
2013-09-24 19:19:00,61.6,51.0,30.00,ENE,68,4.0,5.0,68,0.00,,---,0.01,VWS V14.01,2013-09-24 23:19:00,
2013-09-24 19:24:00,60.9,50.7,30.00,NE,56,3.0,5.0,69,0.00,,---,0.01,VWS V14.01,2013-09-24 23:24:00,
2013-09-24 19:29:00,60.4,50.6,30.00,East,79,0.0,5.0,70,0.00,,---,0.01,VWS V14.01,2013-09-24 23:29:00,
2013-09-24 19:34:00,60.0,50.6,30.00,East,94,1.0,5.0,71,0.00,,---,0.01,VWS V14.01,2013-09-24 23:34:00,
2013-09-24 19:39:00,59.6,50.2,30.00,East,85,1.0,5.0,71,0.00,,---,0.01,VWS V14.01,2013-09-24 23:39:00,
2013-09-24 19:44:00,59.1,50.1,30.00,ENE,74,1.0,5.0,72,0.00,,---,0.01,VWS V14.01,2013-09-24 23:44:00,
2013-09-24 19:49:00,58.4,50.2,30.00,ENE,69,2.0,5.0,74,0.00,,---,0.01,VWS V14.01,2013-09-24 23:49:00,
2013-09-24 19:54:00,57.5,50.0,30.00,East,79,2.0,5.0,76,0.00,,---,0.01,VWS V14.01,2013-09-24 23:54:00,
2013-09-24 19:59:00,57.1,49.6,30.00,ENE,70,2.0,5.0,76,0.00,,---,0.01,VWS V14.01,2013-09-24 23:59:00,
2013-09-24 20:00:00,63.8,51.0,30.00,ENE,61,2.0,9.0,63,0.00,,---,0.01,VWS V14.01,2013-09-25 00:00:00,
2013-09-24 20:04:00,56.8,49.7,29.99,ENE,72,1.0,2.0,77,0.00,,---,0.01,VWS V14.01,2013-09-25 00:04:00,
2013-09-24 20:10:00,56.4,49.3,30.00,ENE,76,1.0,2.0,77,0.00,,---,0.01,VWS V14.01,2013-09-25 00:10:00,
2013-09-24 21:00:00,57.0,49.5,30.00,ENE,74,1.0,5.0,76,0.00,,---,0.01,VWS V14.01,2013-09-25 01:00:00,
2013-09-24 22:00:00,51.6,47.6,30.01,ENE,76,0.0,2.0,86,0.00,,---,0.01,VWS V14.01,2013-09-25 02:00:00,
2013-09-24 23:00:00,48.2,46.0,30.00,ENE,76,0.0,1.0,92,0.00,,---,0.01,VWS V14.01,2013-09-25 03:00:00,